Cavalier, ND

7:59 AM CST on February 26, 2017 (GMT -0600)
Cavalier

Weather History for K2C8 - January, 2014

Change the Weather History Date:

Thursday, January 9, 2014

  Actual Average (KGAF) Record (KGAF)
Temperature  
Mean Temperature 12 °F -  
Max Temperature 26 °F 10 °F 46 °F (2012)
Min Temperature -2 °F -8 °F -34 °F (1993)
Degree Days  
Heating Degree Days 53    
Moisture  
Dew Point 11 °F    
Average Humidity 86    
Maximum Humidity 93    
Minimum Humidity 78    
Precipitation  
Precipitation 0.00 in - - ()
Sea Level Pressure  
Sea Level Pressure 29.72 in    
Wind  
Wind Speed 17 mph (South)    
Max Wind Speed 24 mph    
Max Gust Speed 31 mph    
Visibility 6 miles    
Events      
Averages and records for this station are not official NWS values.
T = Trace of Precipitation, MM = Missing Value Source: NWS Daily Summary

Daily Weather History Graph

Daily Weather History Graph

Search for Another Location

Airport or City:

Trip Planner

Search our weather history database for the weather conditions in past years. The results will help you decide how hot, cold, wet, or windy it might be!

Date:

Astronomy

Jan. 09, 2014 Rise Set
Actual Time 8:21 AM CST 4:54 PM CST
Civil Twilight 7:45 AM CST 5:30 PM CST
Nautical Twilight 7:05 AM CST 6:10 PM CST
Astronomical Twilight 6:27 AM CST 6:48 PM CST
Moon 12:32 PM CST (1/9) 2:17 AM CST (1/9)
Length of Visible Light 9h 44m
Length of Day
8h 32m
Waxing Gibbous, 66% of the Moon is Illuminated
Jan 9
Waxing Gibbous
Jan 15
Full
Jan 23
Last Quarter
Jan 30
New
Feb 6
First Quarter

Hourly Weather History & Observations

Time (CST) Temp. Windchill Dew Point Humidity Pressure Visibility Wind Dir Wind Speed Gust Speed Precip Events Conditions
12:15 AM -2.2 °F -24.7 °F -7.6 °F 78% 30.03 in 5.0 mi South 19.6 mph - N/A   Haze
12:35 AM -2.2 °F -24.7 °F -7.6 °F 78% 30.02 in 5.0 mi South 19.6 mph 25.3 mph N/A   Haze
12:55 AM -0.4 °F -21.7 °F -5.8 °F 78% 30.00 in 2.5 mi South 18.4 mph 26.5 mph N/A   Haze
1:15 AM -0.4 °F -21.7 °F -4.0 °F 85% 29.98 in 3.0 mi South 18.4 mph - N/A   Haze
1:35 AM -0.4 °F -22.3 °F -4.0 °F 85% 29.97 in 5.0 mi South 19.6 mph - N/A   Haze
1:55 AM -0.4 °F -22.8 °F -4.0 °F 85% 29.95 in 4.0 mi South 20.7 mph 25.3 mph N/A   Overcast
2:15 AM 1.4 °F -21.9 °F -2.2 °F 85% 29.93 in 3.0 mi South 24.2 mph - N/A   Overcast
2:35 AM 1.4 °F -21.4 °F -2.2 °F 85% 29.92 in 5.0 mi South 23.0 mph - N/A   Overcast
2:55 AM 1.4 °F -19.9 °F -2.2 °F 85% 29.91 in 5.0 mi South 19.6 mph 27.6 mph N/A   Overcast
3:15 AM 3.2 °F -18.6 °F -0.4 °F 85% 29.89 in 4.0 mi South 21.9 mph - N/A   Overcast
3:35 AM 5.0 °F -16.7 °F -0.4 °F 78% 29.87 in 4.0 mi South 23.0 mph 29.9 mph N/A   Overcast
3:55 AM 5.0 °F -16.2 °F -0.4 °F 78% 29.85 in 3.0 mi South 21.9 mph 27.6 mph N/A   Mostly Cloudy
4:15 AM 5.0 °F -16.7 °F 1.4 °F 85% 29.84 in 3.0 mi South 23.0 mph 28.8 mph N/A   Overcast
4:35 AM 6.8 °F -13.8 °F 1.4 °F 79% 29.82 in 3.0 mi South 21.9 mph 28.8 mph N/A   Mostly Cloudy
4:55 AM 6.8 °F -14.7 °F 3.2 °F 85% 29.80 in 3.0 mi South 24.2 mph 31.1 mph N/A   Mostly Cloudy
5:15 AM 8.6 °F -12.3 °F 5.0 °F 85% 29.79 in 3.0 mi South 24.2 mph 29.9 mph N/A   Mostly Cloudy
5:35 AM 8.6 °F -11.9 °F 5.0 °F 85% 29.77 in 4.0 mi South 23.0 mph - N/A   Mostly Cloudy
5:55 AM 10.4 °F -7.7 °F 6.8 °F 85% 29.78 in 5.0 mi South 18.4 mph 27.6 mph N/A   Overcast
6:15 AM 10.4 °F -9.5 °F 6.8 °F 85% 29.76 in 6.0 mi South 23.0 mph 27.6 mph N/A   Overcast
6:35 AM 10.4 °F -8.6 °F 6.8 °F 85% 29.75 in 7.0 mi South 20.7 mph - N/A   Overcast
6:55 AM 12.2 °F -7.1 °F 8.6 °F 85% 29.74 in 5.0 mi South 23.0 mph 29.9 mph N/A   Partly Cloudy
7:15 AM 14.0 °F -4.7 °F 8.6 °F 79% 29.72 in 5.0 mi South 23.0 mph 28.8 mph N/A   Clear
7:35 AM 14.0 °F -4.3 °F 8.6 °F 79% 29.72 in 7.0 mi South 21.9 mph 26.5 mph N/A   Scattered Clouds
7:55 AM 14.0 °F -3.0 °F 10.4 °F 86% 29.72 in 10.0 mi South 18.4 mph 25.3 mph N/A   Scattered Clouds
8:15 AM 14.0 °F -3.4 °F 10.4 °F 86% 29.71 in 7.0 mi South 19.6 mph 24.2 mph N/A   Mostly Cloudy
8:35 AM 15.8 °F -1.9 °F 12.2 °F 86% 29.70 in 5.0 mi South 21.9 mph - N/A   Mostly Cloudy
8:55 AM 15.8 °F -0.6 °F 12.2 °F 86% 29.70 in 5.0 mi South 18.4 mph - N/A   Overcast
9:15 AM 15.8 °F 2.7 °F 14.0 °F 93% 29.72 in 10.0 mi South 11.5 mph - N/A   Overcast
9:35 AM 15.8 °F 6.1 °F 14.0 °F 93% 29.72 in 10.0 mi South 6.9 mph - N/A   Partly Cloudy
9:55 AM 15.8 °F 6.1 °F 12.2 °F 86% 29.72 in 10.0 mi SSE 6.9 mph - N/A   Clear
10:15 AM 17.6 °F 7.3 °F 14.0 °F 86% 29.72 in 10.0 mi SE 8.1 mph - N/A   Clear
10:35 AM 17.6 °F 7.3 °F 14.0 °F 86% 29.72 in 10.0 mi SSE 8.1 mph - N/A   Clear
10:55 AM 15.8 °F 5.1 °F 12.2 °F 86% 29.72 in 10.0 mi SE 8.1 mph - N/A   Clear
11:15 AM 15.8 °F 4.2 °F 14.0 °F 93% 29.71 in 10.0 mi SSE 9.2 mph - N/A   Clear
11:35 AM 17.6 °F 5.7 °F 14.0 °F 86% 29.70 in 10.0 mi SSE 10.4 mph - N/A   Clear
11:55 AM 17.6 °F 6.4 °F 14.0 °F 86% 29.68 in 10.0 mi SSE 9.2 mph - N/A   Clear
12:15 PM 19.4 °F 12.8 °F 15.8 °F 86% 29.68 in 10.0 mi SE 4.6 mph - N/A   Clear
12:35 PM 21.2 °F 11.7 °F 15.8 °F 80% 29.67 in 10.0 mi SSE 8.1 mph - N/A   Clear
12:55 PM 23.0 °F 13.1 °F 17.6 °F 80% 29.65 in 10.0 mi South 9.2 mph - N/A   Clear
1:15 PM 24.8 °F 13.4 °F 19.4 °F 80% 29.65 in 10.0 mi South 12.7 mph - N/A   Clear
1:35 PM 24.8 °F 14.0 °F 19.4 °F 80% 29.64 in 9.0 mi South 11.5 mph - N/A   Clear
1:55 PM 24.8 °F 13.4 °F 19.4 °F 80% 29.64 in 10.0 mi South 12.7 mph - N/A   Clear
2:35 PM 24.8 °F 13.4 °F 21.2 °F 86% 29.63 in 10.0 mi South 12.7 mph - N/A   Partly Cloudy
2:55 PM 24.8 °F 14.0 °F 19.4 °F 80% 29.63 in 10.0 mi South 11.5 mph - N/A   Partly Cloudy
3:15 PM 26.6 °F 15.7 °F 21.2 °F 80% 29.63 in 10.0 mi South 12.7 mph - N/A   Clear
3:35 PM 24.8 °F 12.4 °F 19.4 °F 80% 29.63 in 10.0 mi South 15.0 mph - N/A   Clear
3:55 PM 24.8 °F 13.4 °F 19.4 °F 80% 29.64 in 10.0 mi South 12.7 mph - N/A   Clear
4:15 PM 24.8 °F 14.0 °F 19.4 °F 80% 29.64 in 9.0 mi South 11.5 mph - N/A   Clear
5:15 PM 21.2 °F 11.7 °F 17.6 °F 86% 29.64 in 8.0 mi SSE 8.1 mph - N/A   Clear
5:35 PM 21.2 °F 8.9 °F 17.6 °F 86% 29.64 in 8.0 mi South 12.7 mph - N/A   Clear
5:55 PM 19.4 °F 5.5 °F 17.6 °F 93% 29.63 in 7.0 mi South 15.0 mph - N/A   Clear
6:15 PM 19.4 °F 6.6 °F 15.8 °F 86% 29.63 in 7.0 mi South 12.7 mph - N/A   Clear
6:35 PM 19.4 °F 6.6 °F 17.6 °F 93% 29.63 in 6.0 mi South 12.7 mph - N/A   Clear
6:55 PM 19.4 °F 6.6 °F 15.8 °F 86% 29.62 in 6.0 mi South 12.7 mph - N/A   Clear
7:15 PM 19.4 °F 6.6 °F 17.6 °F 93% 29.62 in 6.0 mi South 12.7 mph - N/A   Clear
7:35 PM 19.4 °F 6.0 °F 15.8 °F 86% 29.61 in 6.0 mi South 13.8 mph - N/A   Clear
7:55 PM 19.4 °F 6.0 °F 15.8 °F 86% 29.61 in 5.0 mi South 13.8 mph - N/A   Clear
8:15 PM 17.6 °F 4.3 °F 15.8 °F 93% 29.60 in 5.0 mi South 12.7 mph - N/A   Clear
8:35 PM 17.6 °F 3.7 °F 15.8 °F 93% 29.60 in 5.0 mi South 13.8 mph - N/A   Clear
8:55 PM 17.6 °F 3.7 °F 15.8 °F 93% 29.60 in 5.0 mi South 13.8 mph - N/A   Clear
9:15 PM 17.6 °F 3.7 °F 15.8 °F 93% 29.60 in 5.0 mi South 13.8 mph - N/A   Clear
9:35 PM 17.6 °F 5.0 °F 15.8 °F 93% 29.59 in 5.0 mi South 11.5 mph - N/A   Clear
9:55 PM 17.6 °F 4.3 °F 15.8 °F 93% 29.59 in 5.0 mi South 12.7 mph - N/A   Clear
10:15 PM 17.6 °F 4.3 °F 15.8 °F 93% 29.58 in 5.0 mi South 12.7 mph - N/A   Clear
10:35 PM 17.6 °F 4.3 °F 14.0 °F 86% 29.57 in 5.0 mi South 12.7 mph - N/A   Clear
10:55 PM 15.8 °F 2.7 °F 14.0 °F 93% 29.57 in 5.0 mi South 11.5 mph - N/A   Clear
11:15 PM 15.8 °F 3.4 °F 14.0 °F 93% 29.57 in 5.0 mi South 10.4 mph - N/A   Clear
11:35 PM 15.8 °F 5.1 °F 14.0 °F 93% 29.56 in 4.0 mi South 8.1 mph - N/A   Clear
11:55 PM 15.8 °F 5.1 °F 14.0 °F 93% 29.56 in 4.0 mi SSE 8.1 mph - N/A   Clear